Kezdőlap
METAR-TAF:

METAR-TAF

Repülőterek :

Carroll, Iowa, Amerikai Egyesült Államok

földrajzi szélesség: 42-03N, földrajzi hosszúság: 094-47W, magasság: 375 m

Jelenlegi meteorológiai megfigyelések

A jelentés 33 perccel ezelõtt készült, 12:55 UTC
Szélcsend
Hőmérséklet -2°C
Páratartalom 100%
Légköri nyomás 1027 hPa
Látótávolság: 16.1 km
Borult 9500 lábon

METAR: KCIN 041255Z AUTO 00000KT 10SM OVC095 M02/M02 A3033 RMK AO2

Idő: 07:28 (13:28 UTC)


TAF: hiányzik

Meteorológiai megfigyelések és előrejelzések több, mint 4000 repülőtéren (METAR és TAF jelentéseket).

A térképen piros és sárga pontok jelzik az elérhető meteorológiai állomásokat.

Mozgassa az egeret a pont fölött, hogy megjelenjen az állomás neve.

Azután kattintson az időjárási megfigyelések és előrejelzések megtekintéséhez.

A térkép megváltoztatása: kattintson a fekete keresztel jelölt zöld gombra ráközelítéshez, a vonallal jelölt zöld gombra távolításhoz, vagy a zöld nyilakra a szomszédos térképek eléréséhez.


METAR-TAF: